Back to catalog

SL-14 DEB

AlivePO
NORAD 27639·DEBRIS·🇷🇺 Russia

Launched Aug 18, 1987 from Plesetsk Cosmodrome

Loading…

Next Passes (next 24 hours)

TLE

FreshSource: Space-Track

Epoch: Sep 13, 2026, 01:47 UTC

1 27639U 87068CM  26256.07443591  .00000124  00000-0  11948-3 0  9993
2 27639  82.5125   2.5288 0065503 241.4962 295.3121 13.72317083653242

Track SL-14 DEB in real time with AllMySat

Download on the App Store